Station JNEA2 - 9452210 - Juneau, AK Image indicating link to RSS feed of recent meteorological observations for station JNEA2


Conditions at JNEA2 as of
(3:18 am AKDT)
1118 GMT on 04/21/2024:
     

Click on the graph icon in the table below to see a time series plot of the last five days of that observation.

5-day plot - Wind Speed Wind Speed (WSPD): 0.0 kts
5-day plot - Wind Gust Wind Gust (GST): 1.9 kts
5-day plot - Atmospheric Pressure Atmospheric Pressure (PRES):29.82 in
5-day plot - Air Temperature Air Temperature (ATMP): 39.2 °F
5-day plot - Water Temperature Water Temperature (WTMP): 43.9 °F
5-day plot - Wind Speed at 10 Meters Wind Speed at 10 meters (WSPD10M): 0.0 kts
5-day plot - Wind Speed at 20 Meters Wind Speed at 20 meters (WSPD20M): 0.0 kts
5-day plot -  Wind Speed, Wind Gust and Atmospheric Pressure Combined plot of Wind Speed, Gust, and Air Pressure
NOS Water Level Observation Network Water Level
Previous observations
TIME
(AKDT)
5-day plot - Wind Direction
WDIR
 
5-day plot - Wind Speed
WSPD
kts
5-day plot - Wind Gust
GST
kts
5-day plot - Wave Height
WVHT
ft
5-day plot - Dominant Wave Period
DPD
sec
5-day plot - Average Wave Period
APD
sec
5-day plot - Mean Wave Direction
MWD
 
5-day plot - Atmospheric Pressure
PRES
in
5-day plot - Pressure Tendency
PTDY
in
5-day plot - Air Temperature
ATMP
°F
5-day plot - Water Temperature
WTMP
°F
5-day plot - Dew Point
DEWP
°F
5-day plot - Salinity
SAL
psu
5-day plot - Visibility
VIS
nmi
5-day plot - Tide (above MLLW)
TIDE
ft
2024-04-21 03:12 amWNW 1.9 1.9----29.82- 38.7 43.5----
2024-04-21 03:06 amWSW 1.0 1.9----29.82- 39.0 43.9----
2024-04-21 03:00 am- 0.0 1.9----29.82- 39.4 43.2----
2024-04-21 02:54 am NW 1.9 1.9----29.82- 39.2 42.6----
2024-04-21 02:48 amWNW 1.0 1.9----29.82- 39.0 42.3----
2024-04-21 02:42 amWNW 1.9 1.9----29.82- 39.2 42.1----
2024-04-21 02:36 am NW 1.9 2.9----29.82- 39.0 42.1----
2024-04-21 02:30 am NW 1.9 2.9----29.81-- 42.1----
2024-04-21 02:24 am NW 1.9 2.9----29.81-- 42.1----
2024-04-21 02:18 amWNW 2.9 2.9----29.81- 39.2 41.9----
2024-04-21 02:12 amWNW 1.9 2.9----29.81- 39.7 41.7----
2024-04-21 02:06 am W 1.0 1.9----29.81- 40.6 41.9----
2024-04-21 02:00 am- 0.0 0.0----29.81+0.02 40.5 41.9----
2024-04-21 01:54 am- 0.0 0.0----29.81- 40.5 41.7----
2024-04-21 01:48 am- 0.0 0.0----29.81- 40.5 41.7----
2024-04-21 01:42 am- 0.0 0.0----29.81- 40.3 41.5----
2024-04-21 01:36 am- 0.0 0.0----29.81- 40.1 41.7----
2024-04-21 01:30 am- 0.0 0.0----29.81- 40.3 41.7----
2024-04-21 01:24 am- 0.0 0.0----29.81- 40.5 41.5----
2024-04-21 01:18 am- 0.0 0.0----29.81- 40.8 41.5----
2024-04-21 01:12 am- 0.0 1.0----29.81- 40.8 41.5----
2024-04-21 01:06 am- 0.0 1.9----29.81- 40.8 41.5----
2024-04-21 01:00 am- 0.0 1.0----29.81+0.02 40.8 41.7----
2024-04-21 12:54 am- 0.0 1.0----29.81- 41.4 41.7----
2024-04-21 12:48 am- 0.0 1.0----29.81- 41.9 41.7----
2024-04-21 12:42 amESE 1.0 1.0----29.81- 41.9 41.9----
2024-04-21 12:36 amNNE 1.0 1.9----29.81- 41.5 42.1----
2024-04-21 12:30 am W 1.0 1.9----29.81- 41.2 42.1----
2024-04-21 12:24 am W 1.9 2.9----29.81- 41.4 42.3----
2024-04-21 12:18 am NW 1.9 2.9----29.81-- 42.3----
2024-04-21 12:12 am- 0.0 1.9----29.81-- 42.6----
2024-04-21 12:06 am- 0.0 1.0----29.80-- 42.8----
2024-04-21 12:00 am W 1.0 1.9------ 42.1 42.3----
2024-04-20 11:54 pm SW 1.0 1.9------ 42.4 42.3----
2024-04-20 11:48 pmNNW 1.0 1.9----29.80- 42.6 42.4----
2024-04-20 11:42 pm- 0.0 1.0----29.80- 42.4 41.9----
2024-04-20 11:36 pmWNW 1.0 1.9----29.80- 41.9 41.7----
2024-04-20 11:30 pmWSW 1.0 1.9----29.80- 42.1 41.5----
2024-04-20 11:24 pm S 1.0 1.0----29.80- 42.4 41.0----
2024-04-20 11:18 pm- 0.0 0.0----29.80- 43.0 41.0----
2024-04-20 11:12 pm- 0.0 1.0----29.79- 43.5 41.0----
2024-04-20 11:06 pm- 0.0 1.9----29.79- 43.5 41.0----
2024-04-20 11:00 pm- 0.0 1.0----29.79+0.01 43.3 41.0----
2024-04-20 10:54 pm- 0.0 1.9----29.79- 43.9 41.2----
2024-04-20 10:48 pm NW 1.0 2.9----29.80- 42.8 41.2----
2024-04-20 10:42 pm SW 2.9 5.1----29.80- 42.4 41.0----
2024-04-20 10:36 pm- 0.0 1.9----29.79- 44.4 41.2----
2024-04-20 10:30 pm- 0.0 1.9----29.80- 43.0 41.2----
2024-04-20 10:24 pm SW 1.0 1.9----29.79- 43.2 41.2----
2024-04-20 10:18 pm- 0.0 1.0----29.79- 44.1 41.2----
2024-04-20 10:12 pm- 0.0 0.0----29.79- 44.2 41.2----
2024-04-20 10:06 pm- 0.0 0.0----29.79- 44.6 41.2----
2024-04-20 10:00 pm- 0.0 0.0----29.79+0.01 44.6 41.2----
2024-04-20 09:54 pm- 0.0 1.0----29.79- 45.3 41.2----
2024-04-20 09:48 pm- 0.0 1.0----29.79- 45.9 41.2----
2024-04-20 09:42 pm- 0.0 1.0----29.79- 45.5 41.2----
2024-04-20 09:36 pm- 0.0 0.0----29.79- 45.5 41.2----
2024-04-20 09:30 pm- 0.0 0.0----29.79- 45.9 41.2----
2024-04-20 09:24 pm- 0.0 2.9----29.79- 46.9 41.4----
2024-04-20 09:18 pm W 2.9 4.1----29.79- 48.0 41.4----
2024-04-20 09:12 pm W 2.9 4.1----29.79- 46.9 41.4----
2024-04-20 09:06 pm W 1.0 2.9----29.79- 47.8 41.9----
2024-04-20 09:00 pm W 1.9 2.9----29.79+0.00 48.2 42.3----
2024-04-20 08:54 pm W 1.0 2.9----29.79- 47.8 42.3----
2024-04-20 08:48 pm SW 1.0 2.9----29.79- 47.7 41.9----
2024-04-20 08:42 pmWSW 1.9 2.9----29.79- 47.7 41.9----
2024-04-20 08:36 pmWSW 1.9 2.9----29.78- 48.0 42.4----
2024-04-20 08:30 pm W 1.0 4.1----29.78- 48.7 42.1----
2024-04-20 08:24 pm- 0.0 1.0----29.78- 48.7 42.1----
2024-04-20 08:18 pm- 0.0 1.9----29.78- 48.6 42.4----
2024-04-20 08:12 pm SW 1.0 1.9----29.78- 49.5 42.6----
2024-04-20 08:06 pm- 0.0 2.9----29.78- 49.5 42.6----
2024-04-20 08:00 pm S 1.9 2.9----29.78-0.02 49.5 42.6----
2024-04-20 07:54 pmSSW 1.9 4.1----29.78- 50.9 42.6----
2024-04-20 07:48 pm W 1.9 2.9----29.78- 51.8 43.0----
2024-04-20 07:42 pm- 0.0 0.0----29.78- 52.0 43.2----
2024-04-20 07:36 pm- 0.0 1.9----29.78- 51.8 43.7----
2024-04-20 07:30 pm E 1.0 1.9----29.78- 51.4 44.1----
2024-04-20 07:24 pmESE 1.0 1.9----29.78- 51.3 44.2----
2024-04-20 07:18 pm SE 2.9 2.9----29.78- 51.4 44.4----
2024-04-20 07:12 pm SE 1.9 2.9----29.78- 52.2 44.4----
2024-04-20 07:06 pmESE 2.9 5.1----29.78- 52.7 44.4----
2024-04-20 07:00 pm E 1.9 6.0----29.78-0.04 54.1 44.6----
2024-04-20 06:54 pmNNE 5.1 8.9----29.78- 58.8 44.2----
2024-04-20 06:48 pmNNE 5.1 8.0----29.78- 59.2 43.7----
2024-04-20 06:42 pmNNE 5.1 8.9----29.78- 59.2 43.3----
2024-04-20 06:36 pmNNE 4.1 8.9----29.78- 59.2 43.2----
2024-04-20 06:30 pm N 5.1 8.9----29.78- 59.7 43.5----
2024-04-20 06:24 pm N 4.1 8.0----29.78- 59.7 43.9----
2024-04-20 06:18 pmNNE 4.1 7.0----29.78- 59.5 43.7----
2024-04-20 06:12 pm N 4.1 8.0----29.78- 60.1 43.3----
2024-04-20 06:06 pm N 2.9 8.0----29.78- 60.3 43.3----
2024-04-20 06:00 pmNNE 1.9 7.0----29.78-0.06 60.1 43.3----
2024-04-20 05:54 pmNNW 2.9 8.0----29.79- 60.1 43.3----
2024-04-20 05:48 pm N 1.9 9.9----29.79- 60.4 43.3----
2024-04-20 05:42 pm N 5.1 8.9----29.79- 60.1 43.3----
2024-04-20 05:36 pm- 0.0 0.0----29.79- 61.7 43.2----
2024-04-20 05:30 pm- 0.0 1.0----29.79- 61.0 42.8----
2024-04-20 05:24 pmSSE 1.0 2.9----29.79- 59.7 43.0----
2024-04-20 05:18 pmSSE 1.0 4.1----29.80- 59.0 42.8----
2024-04-20 05:12 pm S 2.9 4.1----29.80- 59.0 42.6----
2024-04-20 05:06 pm S 1.9 2.9----29.80- 59.4 42.6----
2024-04-20 05:00 pm S 1.9 4.1----29.80-0.06 59.2 42.4----
2024-04-20 04:54 pm S 1.9 4.1----29.80- 59.4 42.4----
2024-04-20 04:48 pmSSW 2.9 5.1----29.80- 60.1 42.3----
2024-04-20 04:42 pmSSE 4.1 5.1----29.81- 59.4 42.1----
2024-04-20 04:36 pmSSE 4.1 4.1----29.81- 59.5 41.9----
2024-04-20 04:30 pmSSE 4.1 4.1----29.81- 59.4 41.9----
2024-04-20 04:24 pmSSE 4.1 6.0----29.81- 59.4 41.7----
2024-04-20 04:18 pmSSE 4.1 5.1------ 59.4 41.7----
2024-04-20 04:12 pmSSE 4.1 6.0------ 58.8 41.7----
2024-04-20 04:06 pmSSE 4.1 5.1------ 59.2 41.7----
2024-04-20 04:00 pm SE 2.9 4.1----29.82-0.06 59.4 41.7----
2024-04-20 03:54 pmSSE 2.9 4.1----29.83- 59.2 41.5----
2024-04-20 03:48 pmSSE 4.1 5.1----29.83-- 41.5----
2024-04-20 03:42 pm SE 4.1 5.1----29.83-- 41.4----
2024-04-20 03:36 pmSSE 5.1 5.1----29.83-- 41.4----
2024-04-20 03:30 pm SE 4.1 6.0----29.83- 58.1 41.4----
2024-04-20 03:24 pm SE 5.1 7.0----29.83- 57.7 41.4----
2024-04-20 03:18 pmSSE 4.1 5.1----29.84-- 41.4----
2024-04-20 03:12 pmSSE 4.1 5.1----29.84-- 41.4----
2024-04-20 03:06 pmSSE 5.1 5.1----29.84-- 41.4----
2024-04-20 03:00 pm SE 4.1 5.1----29.84-0.05 57.6 41.4----
2024-04-20 02:54 pm SE 2.9 5.1----29.84- 58.5 41.4----
2024-04-20 02:48 pmSSE 5.1 5.1----29.85- 57.7 41.4----
2024-04-20 02:42 pm SE 5.1 5.1----29.85- 57.7 41.4----
2024-04-20 02:36 pm SE 5.1 6.0----29.85- 57.6 41.4----
2024-04-20 02:30 pm SE 5.1 5.1----29.85- 57.2 41.4----
2024-04-20 02:24 pm SE 4.1 5.1----29.85- 57.2 41.4----
2024-04-20 02:18 pm SE 4.1 5.1----29.85- 57.0 41.4----
2024-04-20 02:12 pm SE 5.1 5.1----29.86- 57.6 41.4----
2024-04-20 02:06 pm SE 5.1 6.0----29.86- 57.7 41.4----
2024-04-20 02:00 pm-------29.86-0.06 57.0 41.4----
2024-04-20 01:54 pm-------29.86- 57.2 41.4----
2024-04-20 01:48 pmSSE 6.0 7.0----29.86- 57.2 41.4----
2024-04-20 01:42 pmSSE 6.0 7.0----29.86- 56.7 41.4----
2024-04-20 01:36 pm SE 7.0 7.0----29.87- 57.2 41.4----
2024-04-20 01:30 pmSSE 6.0 7.0----29.87- 56.3 41.4----
2024-04-20 01:24 pmSSE 6.0 6.0----29.87- 56.1 41.4----
2024-04-20 01:18 pm SE 6.0 7.0----29.87- 56.1 41.4----
2024-04-20 01:12 pmSSE 6.0 7.0----29.87- 55.2 41.4----
2024-04-20 01:06 pmSSE 6.0 8.0----29.88- 53.2 41.4----
2024-04-20 01:00 pmSSE 6.0 7.0----29.88-0.06 51.4 41.4----
2024-04-20 12:54 pm S 7.0 8.9----29.88- 49.8 41.5----
2024-04-20 12:48 pm S 7.0 8.0----29.88-- 41.5----
2024-04-20 12:42 pmSSE 6.0 7.0----29.88-- 41.5----
2024-04-20 12:36 pmSSE 7.0 8.9----29.88-- 41.5----
2024-04-20 12:30 pmSSE 8.0 8.9----29.88- 53.1 41.5----
2024-04-20 12:24 pm SE 8.0 9.9----29.89- 52.3 41.5----
2024-04-20 12:18 pm SE 8.0 8.9------ 53.2 41.5----
2024-04-20 12:12 pmSSE 7.0 8.0------ 51.4 41.5----
2024-04-20 12:06 pmSSE 8.0 9.9------ 51.3 41.5----
2024-04-20 12:00 pm-------29.90-0.06 49.8 41.5----
2024-04-20 11:54 am-------29.90- 49.3 41.5----
2024-04-20 11:48 am S 8.0 8.9----29.90- 49.1 41.7----
2024-04-20 11:42 am S 8.0 8.0----29.90- 48.9 41.7----
2024-04-20 11:36 am S 8.0 8.0----29.91- 48.7 41.7----
2024-04-20 11:30 am S 7.0 8.0----29.91- 48.0 41.7----
2024-04-20 11:24 am S 7.0 8.0----29.91- 47.5 41.7----
2024-04-20 11:18 amSSE 7.0 8.0----29.91- 47.5 41.7----
2024-04-20 11:12 amSSE 7.0 7.0----29.92- 48.0 41.7----
2024-04-20 11:06 am S 6.0 7.0----29.92- 47.1 41.7----
2024-04-20 11:00 amSSE 6.0 7.0----29.92-0.05------
2024-04-20 10:54 am S 4.1 5.1----29.93-------
2024-04-20 10:48 amSSE 4.1 5.1----29.93- 45.9 41.9----
2024-04-20 10:42 amSSE 1.0 2.9----29.93- 47.3 41.9----
2024-04-20 10:36 am S 1.9 2.9----29.93- 47.1 41.9----
2024-04-20 10:30 amSSE 1.9 2.9------ 46.8 41.9----
2024-04-20 10:24 am- 0.0 1.0------ 49.3 41.9----
2024-04-20 10:18 amSSW 1.0 1.0----29.93- 48.6 41.9----
2024-04-20 10:12 am- 0.0 0.0----29.94- 49.8 42.1----
2024-04-20 10:06 am- 0.0 0.0----29.94- 49.6 42.1----
2024-04-20 10:00 am- 0.0 1.0----29.94-0.05 47.8 41.5----
2024-04-20 09:54 am- 0.0 1.9----29.94- 46.4 41.2----
2024-04-20 09:48 amSSE 1.0 1.0----29.95- 46.0 41.2----
2024-04-20 09:42 am- 0.0 1.0----29.95- 46.4 41.4----
2024-04-20 09:36 am- 0.0 1.0----29.95- 46.0 41.4----
2024-04-20 09:30 am- 0.0 1.0----29.95- 46.8 41.4----
2024-04-20 09:24 am- 0.0 1.0----29.95- 46.0 41.4----
2024-04-20 09:18 am- 0.0 1.0----29.95- 45.5 41.2----
2024-04-20 09:12 am- 0.0 1.0----29.96- 44.6 41.2----
2024-04-20 09:06 am- 0.0 0.0----29.96- 44.6 41.4----
2024-04-20 09:00 am- 0.0 0.0----29.96-0.06 44.1 41.4----
2024-04-20 08:54 am- 0.0 0.0----29.96- 43.3 41.4----
2024-04-20 08:48 am- 0.0 1.9----29.96- 42.3 41.5----
2024-04-20 08:42 am SW 1.0 1.9----29.96- 41.7 41.5----
2024-04-20 08:36 am- 0.0 0.0----29.96- 43.7 41.7----
2024-04-20 08:30 am- 0.0 0.0----29.96- 42.8 41.9----
2024-04-20 08:24 am- 0.0 0.0----29.96- 41.7 41.7----
2024-04-20 08:18 am- 0.0 0.0----29.97- 39.9 41.9----
2024-04-20 08:12 am- 0.0 1.0----29.97- 38.1 41.9----
2024-04-20 08:06 am- 0.0 0.0----29.97- 38.3 42.1----
2024-04-20 08:00 am- 0.0 0.0----29.97-0.06 37.9 42.1----
2024-04-20 07:54 am- 0.0 1.0----29.97- 37.8 42.3----
2024-04-20 07:48 am- 0.0 1.0----29.98- 37.6 42.4----
2024-04-20 07:42 am NW 1.9 1.9----29.98- 37.2 42.6----
2024-04-20 07:36 amWNW 1.0 2.9----29.98- 36.7 42.8----
2024-04-20 07:30 am NW 2.9 2.9----29.98- 36.3 43.2----
2024-04-20 07:24 amWNW 1.0 1.9----29.98- 36.3 43.2----
2024-04-20 07:18 am W 1.0 1.0----29.99- 36.3 43.2----
2024-04-20 07:12 am- 0.0 1.0----29.99- 36.3 43.2----
2024-04-20 07:06 am W 1.0 1.9----29.99- 36.3 43.2----
2024-04-20 07:00 am NW 1.9 1.9----29.99-0.05 36.1 43.5----
2024-04-20 06:54 am NW 1.9 2.9----30.00- 36.0 44.2----
2024-04-20 06:48 am NW 1.9 2.9----30.00- 36.1 43.7----
2024-04-20 06:42 amWNW 1.0 1.9----30.00- 36.1 43.2----
2024-04-20 06:36 amWNW 1.0 1.9----30.00- 36.3 43.2----
2024-04-20 06:30 am NW 1.9 2.9----30.00- 36.5 43.2----
2024-04-20 06:24 am NW 2.9 4.1----30.01- 36.0 43.3----
2024-04-20 06:18 am NW 2.9 4.1----30.01- 36.0 43.5----
2024-04-20 06:12 am NW 1.9 2.9----30.01- 36.1 43.7----
2024-04-20 06:06 am W 1.9 1.9----30.01- 36.3 43.7----
2024-04-20 06:00 amWNW 1.9 4.1----30.01-0.05 36.0 43.9----
2024-04-20 05:54 am NW 4.1 5.1----30.01- 36.0 44.1----
2024-04-20 05:48 am NW 1.9 4.1----30.01-- 44.2----
2024-04-20 05:42 amWNW 2.9 4.1----30.01-- 44.2----
2024-04-20 05:36 am NW 2.9 2.9----30.02-- 44.4----
2024-04-20 05:30 am NW 1.9 4.1----30.02- 36.9 44.6----
2024-04-20 05:24 am NW 2.9 4.1----30.02- 36.7 44.8----
2024-04-20 05:18 am NW 1.9 1.9----30.02- 36.7 44.8----
2024-04-20 05:12 am W 1.9 1.9----30.03- 37.0 45.0----
2024-04-20 05:06 am NW 1.0 1.9----30.03- 37.6 44.6----
2024-04-20 05:00 am NW 1.9 2.9----30.03-0.04 37.0 44.8----
2024-04-20 04:54 amWNW 1.9 1.9----30.03- 37.0 44.8----
2024-04-20 04:48 amWNW 1.9 1.9----30.03- 37.4 45.0----
2024-04-20 04:42 amNNW 1.0 2.9----30.03- 37.6 44.8----
2024-04-20 04:36 am NW 2.9 2.9----30.04- 37.2 44.6----
2024-04-20 04:30 amWNW 2.9 2.9----30.04- 37.2 44.2----
2024-04-20 04:24 amWNW 1.9 1.9----30.04- 37.8 43.9----
2024-04-20 04:18 amWNW 1.0 1.9----30.04- 37.8 43.7----
2024-04-20 04:12 amWNW 1.0 1.9----30.04- 37.8 43.2----
2024-04-20 04:06 amWNW 1.0 1.0----30.04- 38.5 42.6----
2024-04-20 04:00 amWNW 1.0 1.9----30.04-0.04 38.3 42.4----
2024-04-20 03:54 am NW 1.9 1.9----30.05- 37.9 42.4----